SR9NCI Weather Reports


time (UTC)temp
C
wind
direction
speed
KPH
gust
KPH
rain 1hr
cm
rain 24hr
cm
rain mn
cm
humidity
%
barometer
mb
20260831124659 23 269 11.3 17.7 0.00 0.00 0.00
20260831124256 23 277 19.3 29.0 0.00 0.00 0.00
20260831123856 24 272 19.3 30.6 0.00 0.00 0.00
20260831123454 25 278 11.3 27.4 0.00 0.00 0.00
20260831123053 25 274 16.1 22.5 0.00 0.00 0.00
20260831123006 25 274 16.1 22.5 0.00 0.00 0.00
20260831122643 25 274 16.1 22.5 0.00 0.00 0.00
20260831122242 26 269 12.9 16.1 0.00 0.00 0.00
20260831121841 26 277 14.5 19.3 0.00 0.00 0.00
20260831121440 26 272 17.7 29.0 0.00 0.00 0.00
20260831121037 26 284 14.5 19.3 0.00 0.00 0.00
20260831120636 26 294 17.7 29.0 0.00 0.00 0.00
20260831120233 27 260 14.5 27.4 0.00 0.00 0.00
20260831115832 27 257 12.9 19.3 0.00 0.00 0.00
20260831115430 27 246 12.9 16.1 0.00 0.00 0.00
20260831115028 27 271 12.9 22.5 0.00 0.00 0.00
20260831114620 27 248 11.3 14.5 0.00 0.00 0.00
20260831114217 27 267 6.4 9.7 0.00 0.00 0.00
20260831113817 27 260 8.0 11.3 0.00 0.00 0.00
20260831113414 27 306 4.8 8.0 0.00 0.00 0.00
20260831113012 27 299 4.8 8.0 0.00 0.00 0.00
20260831112612 27 344 4.8 8.0 0.00 0.00 0.00
20260831112210 27 315 3.2 6.4 0.00 0.00 0.00
20260831111808 27 305 4.8 8.0 0.00 0.00 0.00
20260831111407 26 308 8.0 11.3 0.00 0.00 0.00
20260831111004 27 333 4.8 9.7 0.00 0.00 0.00
20260831110556 26 321 6.4 9.7 0.00 0.00 0.00
20260831110153 27 326 6.4 9.7 0.00 0.00 0.00
20260831105752 27 157 4.8 8.0 0.00 0.00 0.00
20260831105352 28 157 1.6 3.2 0.00 0.00 0.00
20260831104950 27 157 4.8 6.4 0.00 0.00 0.00
20260831104548 27 157 3.2 4.8 0.00 0.00 0.00
20260831104146 27 157 6.4 9.7 0.00 0.00 0.00
20260831103820 27 157 6.4 11.3 0.00 0.00 0.00
20260831103745 27 157 6.4 11.3 0.00 0.00 0.00
20260831103344 27 157 8.0 11.3 0.00 0.00 0.00
20260831102533 27 195 9.7 12.9 0.00 0.00 0.00
20260831102131 27 197 9.7 14.5 0.00 0.00 0.00
20260831101730 27 205 8.0 14.5 0.00 0.00 0.00
20260831101329 27 207 6.4 12.9 0.00 0.00 0.00
20260831100926 27 194 12.9 20.9 0.00 0.00 0.00
20260831100525 27 174 8.0 16.1 0.00 0.00 0.00
20260831100123 27 196 8.0 14.5 0.00 0.00 0.00
20260831095722 27 157 3.2 6.4 0.00 0.00 0.00
20260831095320 27 135 0.0 3.2 0.00 0.00 0.00
20260831094918 27 135 4.8 8.0 0.00 0.00 0.00
20260831094510 27 135 4.8 6.4 0.00 0.00 0.00
20260831094108 27 135 3.2 6.4 0.00 0.00 0.00
20260831093706 27 135 4.8 11.3 0.00 0.00 0.00
20260831093305 27 135 4.8 9.7 0.00 0.00 0.00
20260831092502 27 135 9.7 16.1 0.00 0.00 0.00
20260831092100 27 130 6.4 9.7 0.00 0.00 0.00
20260831091658 27 135 8.0 12.9 0.00 0.00 0.00
20260831091257 27 132 8.0 11.3 0.00 0.00 0.00
20260831090855 27 135 6.4 11.3 0.00 0.00 0.00
20260831090447 27 132 8.0 12.9 0.00 0.00 0.00
20260831090044 27 132 8.0 12.9 0.00 0.00 0.00
20260831085643 27 140 8.0 12.9 0.00 0.00 0.00
20260831085242 27 144 8.0 14.5 0.00 0.00 0.00
20260831084840 28 137 6.4 12.9 0.00 0.00 0.00
20260831084438 27 138 8.0 16.1 0.00 0.00 0.00
20260831084036 27 136 8.0 12.9 0.00 0.00 0.00
20260831083635 27 142 11.3 19.3 0.00 0.00 0.00
20260831083234 27 131 8.0 14.5 0.00 0.00 0.00
20260831082831 27 135 8.0 16.1 0.00 0.00 0.00
20260831082423 27 135 8.0 9.7 0.00 0.00 0.00
20260831082021 26 135 6.4 11.3 0.00 0.00 0.00
20260831081620 26 131 6.4 12.9 0.00 0.00 0.00
20260831081219 26 135 6.4 11.3 0.00 0.00 0.00
20260831080816 26 133 11.3 16.1 0.00 0.00 0.00
20260831080415 26 133 11.3 19.3 0.00 0.00 0.00
20260831080013 26 140 9.7 14.5 0.00 0.00 0.00
20260831075613 26 143 9.7 14.5 0.00 0.00 0.00
20260831075210 26 137 11.3 16.1 0.00 0.00 0.00
20260831074809 26 126 9.7 16.1 0.00 0.00 0.00
20260831074401 26 127 11.3 16.1 0.00 0.00 0.00
20260831073959 26 138 12.9 22.5 0.00 0.00 0.00
20260831073557 26 129 12.9 17.7 0.00 0.00 0.00
20260831073156 26 140 11.3 19.3 0.00 0.00 0.00
20260831072754 26 134 9.7 16.1 0.00 0.00 0.00
20260831072353 26 118 8.0 12.9 0.00 0.00 0.00
20260831071950 26 134 9.7 17.7 0.00 0.00 0.00
20260831071549 25 153 12.9 17.7 0.00 0.00 0.00
20260831071148 25 139 8.0 16.1 0.00 0.00 0.00
20260831070746 25 138 12.9 16.1 0.00 0.00 0.00
20260831070338 25 150 11.3 17.7 0.00 0.00 0.00
20260831065935 25 137 9.7 14.5 0.00 0.00 0.00
20260831065534 25 133 9.7 16.1 0.00 0.00 0.00
20260831065133 25 140 9.7 16.1 0.00 0.00 0.00
20260831064731 25 139 11.3 16.1 0.00 0.00 0.00
20260831064329 24 137 12.9 16.1 0.00 0.00 0.00
20260831063927 24 139 11.3 20.9 0.00 0.00 0.00
20260831063526 24 137 12.9 19.3 0.00 0.00 0.00
20260831063125 24 133 8.0 14.5 0.00 0.00 0.00
20260831062722 24 139 8.0 16.1 0.00 0.00 0.00
20260831062400 24 137 9.7 14.5 0.00 0.00 0.00
20260831062314 24 137 9.7 14.5 0.00 0.00 0.00
20260831061912 25 135 4.8 8.0 0.00 0.00 0.00
20260831061511 24 130 4.8 8.0 0.00 0.00 0.00
20260831061109 23 112 6.4 9.7 0.00 0.00 0.00
20260831060707 23 133 4.8 8.0 0.00 0.00 0.00
20260831060306 23 135 6.4 9.7 0.00 0.00 0.00
20260831055904 23 133 6.4 12.9 0.00 0.00 0.00
20260831055503 23 135 6.4 9.7 0.00 0.00 0.00
20260831055100 23 135 8.0 11.3 0.00 0.00 0.00
20260831054659 22 143 6.4 12.9 0.00 0.00 0.00
20260831054251 22 137 8.0 12.9 0.00 0.00 0.00
20260831053849 22 135 4.8 9.7 0.00 0.00 0.00
20260831053447 22 135 6.4 11.3 0.00 0.00 0.00
20260831052644 21 135 0.0 3.2 0.00 0.00 0.00
20260831052243 21 124 3.2 9.7 0.00 0.00 0.00
20260831051840 22 135 3.2 6.4 0.00 0.00 0.00
20260831051438 22 133 6.4 11.3 0.00 0.00 0.00
20260831051037 22 135 4.8 9.7 0.00 0.00 0.00
20260831050635 22 135 3.2 6.4 0.00 0.00 0.00
20260831050225 22 111 1.6 4.8 0.00 0.00 0.00
20260831045824 21 111 1.6 3.2 0.00 0.00 0.00
20260831045423 21 111 3.2 3.2 0.00 0.00 0.00
20260831045022 21 111 3.2 4.8 0.00 0.00 0.00
20260831044620 21 129 4.8 9.7 0.00 0.00 0.00
20260831044218 21 115 4.8 9.7 0.00 0.00 0.00
20260831043815 21 121 8.0 12.9 0.00 0.00 0.00
20260831043414 20 131 6.4 9.7 0.00 0.00 0.00
20260831043013 20 152 4.8 9.7 0.00 0.00 0.00
20260831042610 19 157 3.2 6.4 0.00 0.00 0.00
20260831042202 20 157 4.8 8.0 0.00 0.00 0.00
20260831041801 20 157 4.8 9.7 0.00 0.00 0.00
20260831041400 20 157 6.4 8.0 0.00 0.00 0.00
20260831040957 19 157 4.8 8.0 0.00 0.00 0.00
20260831040556 19 157 4.8 8.0 0.00 0.00 0.00
20260831040155 20 157 4.8 9.7 0.00 0.00 0.00
20260831035753 20 157 4.8 6.4 0.00 0.00 0.00
20260831035351 19 157 4.8 6.4 0.00 0.00 0.00
20260831034950 19 157 4.8 6.4 0.00 0.00 0.00
20260831034548 20 157 6.4 8.0 0.00 0.00 0.00
20260831034140 20 157 4.8 8.0 0.00 0.00 0.00
20260831033738 20 157 4.8 8.0 0.00 0.00 0.00
20260831033336 20 157 8.0 12.9 0.00 0.00 0.00
20260831032935 20 157 9.7 12.9 0.00 0.00 0.00
20260831032533 20 156 8.0 14.5 0.00 0.00 0.00
20260831032132 20 157 8.0 12.9 0.00 0.00 0.00
20260831031729 20 158 8.0 12.9 0.00 0.00 0.00
20260831031328 20 156 8.0 14.5 0.00 0.00 0.00
20260831030926 20 157 8.0 12.9 0.00 0.00 0.00
20260831030524 20 158 8.0 12.9 0.00 0.00 0.00
20260831030115 20 158 8.0 11.3 0.00 0.00 0.00
20260831025713 20 154 8.0 12.9 0.00 0.00 0.00
20260831025312 20 157 6.4 9.7 0.00 0.00 0.00
20260831024911 20 157 6.4 9.7 0.00 0.00 0.00
20260831024508 20 157 6.4 8.0 0.00 0.00 0.00
20260831024107 20 157 4.8 6.4 0.00 0.00 0.00
20260831023705 20 157 4.8 6.4 0.00 0.00 0.00
20260831023304 20 157 4.8 6.4 0.00 0.00 0.00
20260831022903 20 157 6.4 8.0 0.00 0.00 0.00
20260831022500 20 157 4.8 6.4 0.00 0.00 0.00
20260831022052 20 157 6.4 8.0 0.00 0.00 0.00
20260831021650 20 157 6.4 11.3 0.00 0.00 0.00
20260831021249 20 159 8.0 12.9 0.00 0.00 0.00
20260831020847 20 154 8.0 14.5 0.00 0.00 0.00
20260831020445 20 166 6.4 9.7 0.00 0.00 0.00
20260831020044 20 165 8.0 11.3 0.00 0.00 0.00
20260831015642 20 157 8.0 11.3 0.00 0.00 0.00
20260831015240 20 157 6.4 9.7 0.00 0.00 0.00
20260831014839 20 157 6.4 9.7 0.00 0.00 0.00
20260831014437 20 157 8.0 9.7 0.00 0.00 0.00
20260831014030 20 152 8.0 12.9 0.00 0.00 0.00
20260831013627 20 152 8.0 12.9 0.00 0.00 0.00
20260831013226 20 157 6.4 9.7 0.00 0.00 0.00
20260831012825 20 148 6.4 9.7 0.00 0.00 0.00
20260831012423 20 148 9.7 14.5 0.00 0.00 0.00
20260831012022 20 145 9.7 12.9 0.00 0.00 0.00
20260831011619 20 148 8.0 12.9 0.00 0.00 0.00
20260831011218 20 141 8.0 14.5 0.00 0.00 0.00
20260831010817 20 150 8.0 12.9 0.00 0.00 0.00
20260831010415 20 150 9.7 14.5 0.00 0.00 0.00
20260831010006 20 154 6.4 12.9 0.00 0.00 0.00
20260831005604 20 157 8.0 14.5 0.00 0.00 0.00
20260831005203 20 157 6.4 9.7 0.00 0.00 0.00
20260831004802 20 157 6.4 9.7 0.00 0.00 0.00
20260831004359 20 151 8.0 9.7 0.00 0.00 0.00
20260831003958 20 135 6.4 9.7 0.00 0.00 0.00
20260831003556 20 139 6.4 9.7 0.00 0.00 0.00
20260831003155 20 153 8.0 14.5 0.00 0.00 0.00
20260831002753 20 157 6.4 11.3 0.00 0.00 0.00
20260831002351 20 152 8.0 11.3 0.00 0.00 0.00
20260831001943 20 156 8.0 12.9 0.00 0.00 0.00
20260831001541 20 156 8.0 11.3 0.00 0.00 0.00
20260831001141 20 157 6.4 8.0 0.00 0.00 0.00
20260831000738 20 148 4.8 8.0 0.00 0.00 0.00
20260831000336 20 157 4.8 8.0 0.00 0.00 0.00
20260830235936 20 157 4.8 9.7 0.00 0.00 0.00
20260830235534 21 157 8.0 9.7 0.00 0.00 0.00
20260830235132 20 146 6.4 9.7 0.00 0.00 0.00
20260830234731 21 135 4.8 6.4 0.00 0.00 0.00
20260830234328 21 157 6.4 9.7 0.00 0.00 0.00
20260830233920 21 135 6.4 8.0 0.00 0.00 0.00
20260830233517 21 135 4.8 8.0 0.00 0.00 0.00
20260830233116 21 135 4.8 8.0 0.00 0.00 0.00
20260830232716 21 157 6.4 9.7 0.00 0.00 0.00
20260830232313 21 137 6.4 11.3 0.00 0.00 0.00
20260830231911 21 141 4.8 6.4 0.00 0.00 0.00
20260830231509 21 135 4.8 6.4 0.00 0.00 0.00
20260830231108 21 141 4.8 9.7 0.00 0.00 0.00
20260830230707 21 135 3.2 6.4 0.00 0.00 0.00
20260830230305 21 135 3.2 6.4 0.00 0.00 0.00
20260830225856 21 135 3.2 4.8 0.00 0.00 0.00
20260830225454 21 135 3.2 6.4 0.00 0.00 0.00
20260830225053 21 135 1.6 3.2 0.00 0.00 0.00
20260830224652 21 135 1.6 3.2 0.00 0.00 0.00
20260830224249 21 135 1.6 4.8 0.00 0.00 0.00
20260830223848 21 135 3.2 3.2 0.00 0.00 0.00
20260830223446 21 135 3.2 4.8 0.00 0.00 0.00
20260830223045 20 135 4.8 6.4 0.00 0.00 0.00
20260830222241 21 157 3.2 6.4 0.00 0.00 0.00
20260830221833 20 157 3.2 4.8 0.00 0.00 0.00
20260830221431 20 157 3.2 4.8 0.00 0.00 0.00
20260830221029 20 157 3.2 4.8 0.00 0.00 0.00
20260830220628 21 172 3.2 4.8 0.00 0.00 0.00
20260830220226 21 202 3.2 6.4 0.00 0.00 0.00
20260830215825 21 220 4.8 9.7 0.00 0.00 0.00
20260830215423 20 265 6.4 8.0 0.00 0.00 0.00
20260830215021 20 270 6.4 8.0 0.00 0.00 0.00
20260830214620 20 256 6.4 8.0 0.00 0.00 0.00
20260830214218 20 269 8.0 12.9 0.00 0.00 0.00
20260830213810 20 297 8.0 11.3 0.00 0.00 0.00
20260830213407 22 166 3.2 8.0 0.00 0.00 0.00
20260830213006 22 135 6.4 9.7 0.00 0.00 0.00
20260830212605 22 135 6.4 12.9 0.00 0.00 0.00
20260830212203 22 135 9.7 14.5 0.00 0.00 0.00
20260830211801 22 135 8.0 11.3 0.00 0.00 0.00
20260830211400 22 143 9.7 14.5 0.00 0.00 0.00
20260830210558 22 143 9.7 16.1 0.00 0.00 0.00
20260830210155 22 140 9.7 12.9 0.00 0.00 0.00
20260830205747 22 146 9.7 14.5 0.00 0.00 0.00
20260830205345 22 145 8.0 11.3 0.00 0.00 0.00
20260830204944 22 150 8.0 12.9 0.00 0.00 0.00
20260830204543 22 156 8.0 11.3 0.00 0.00 0.00
20260830204140 22 148 6.4 11.3 0.00 0.00 0.00
20260830203739 22 135 6.4 9.7 0.00 0.00 0.00
20260830203337 22 137 6.4 9.7 0.00 0.00 0.00
20260830202936 22 138 8.0 11.3 0.00 0.00 0.00
20260830202534 22 153 8.0 11.3 0.00 0.00 0.00
20260830202132 22 139 6.4 11.3 0.00 0.00 0.00
20260830201724 22 135 6.4 11.3 0.00 0.00 0.00
20260830201322 22 151 6.4 9.7 0.00 0.00 0.00
20260830200920 22 135 6.4 9.7 0.00 0.00 0.00
20260830200519 22 135 6.4 12.9 0.00 0.00 0.00
20260830200117 22 135 4.8 6.4 0.00 0.00 0.00
20260830195716 22 135 4.8 6.4 0.00 0.00 0.00
20260830195313 22 135 4.8 8.0 0.00 0.00 0.00
20260830194912 23 114 3.2 6.4 0.00 0.00 0.00
20260830194511 22 135 3.2 3.2 0.00 0.00 0.00
20260830194110 23 135 4.8 8.0 0.00 0.00 0.00
20260830193702 23 135 4.8 8.0 0.00 0.00 0.00
20260830193259 23 130 6.4 11.3 0.00 0.00 0.00
20260830192858 23 130 6.4 9.7 0.00 0.00 0.00
20260830192457 23 135 6.4 9.7 0.00 0.00 0.00
20260830192055 23 136 4.8 8.0 0.00 0.00 0.00
20260830191653 23 135 6.4 9.7 0.00 0.00 0.00
20260830190850 23 135 4.8 6.4 0.00 0.00 0.00
20260830190449 23 157 6.4 9.7 0.00 0.00 0.00
20260830190046 23 157 3.2 6.4 0.00 0.00 0.00
20260830185638 24 157 3.2 4.8 0.00 0.00 0.00
20260830185236 23 157 4.8 8.0 0.00 0.00 0.00
20260830184835 23 175 3.2 4.8 0.00 0.00 0.00
20260830184433 23 180 4.8 6.4 0.00 0.00 0.00
20260830184031 24 180 1.6 4.8 0.00 0.00 0.00
20260830183630 23 180 3.2 4.8 0.00 0.00 0.00
20260830183228 23 180 3.2 3.2 0.00 0.00 0.00
20260830182827 23 180 3.2 4.8 0.00 0.00 0.00
20260830182425 23 180 3.2 4.8 0.00 0.00 0.00
20260830182023 23 188 4.8 6.4 0.00 0.00 0.00
20260830181615 23 202 4.8 4.8 0.00 0.00 0.00
20260830181213 24 202 3.2 4.8 0.00 0.00 0.00
20260830180811 24 206 4.8 6.4 0.00 0.00 0.00
20260830180410 24 225 1.6 3.2 0.00 0.00 0.00
20260830180008 24 225 1.6 3.2 0.00 0.00 0.00
20260830175607 25 225 3.2 4.8 0.00 0.00 0.00
20260830175204 25 225 1.6 3.2 0.00 0.00 0.00
20260830174803 26 225 3.2 4.8 0.00 0.00 0.00
20260830174402 26 225 4.8 6.4 0.00 0.00 0.00
20260830174001 26 248 4.8 8.0 0.00 0.00 0.00
20260830173551 26 248 4.8 6.4 0.00 0.00 0.00
20260830173150 26 248 4.8 8.0 0.00 0.00 0.00
20260830172749 26 266 4.8 8.0 0.00 0.00 0.00
20260830172347 26 270 4.8 6.4 0.00 0.00 0.00
20260830171945 26 265 4.8 9.7 0.00 0.00 0.00
20260830171543 26 272 6.4 9.7 0.00 0.00 0.00
20260830171141 26 271 6.4 9.7 0.00 0.00 0.00
20260830170740 26 269 8.0 9.7 0.00 0.00 0.00
20260830170339 27 261 8.0 9.7 0.00 0.00 0.00
20260830165936 27 254 8.0 12.9 0.00 0.00 0.00
20260830165528 27 255 9.7 12.9 0.00 0.00 0.00
20260830165127 28 254 8.0 11.3 0.00 0.00 0.00
20260830164726 28 256 8.0 12.9 0.00 0.00 0.00
20260830164323 29 260 6.4 11.3 0.00 0.00 0.00
20260830163922 30 253 4.8 11.3 0.00 0.00 0.00
20260830163521 30 263 6.4 11.3 0.00 0.00 0.00
20260830163119 30 255 9.7 14.5 0.00 0.00 0.00
20260830162717 30 255 6.4 12.9 0.00 0.00 0.00
20260830162316 30 269 9.7 16.1 0.00 0.00 0.00
20260830161914 30 270 4.8 8.0 0.00 0.00 0.00
20260830161506 30 267 8.0 12.9 0.00 0.00 0.00
20260830161104 30 269 8.0 14.5 0.00 0.00 0.00
20260830160702 29 260 8.0 14.5 0.00 0.00 0.00
20260830160301 28 258 9.7 12.9 0.00 0.00 0.00
20260830155859 28 268 8.0 11.3 0.00 0.00 0.00
20260830155458 28 264 9.7 14.5 0.00 0.00 0.00
20260830155055 28 256 14.5 20.9 0.00 0.00 0.00
20260830154754 28 255 12.9 19.3 0.00 0.00 0.00
20260830154654 28 255 12.9 19.3 0.00 0.00 0.00
20260830154253 28 240 11.3 16.1 0.00 0.00 0.00
20260830153851 28 258 12.9 17.7 0.00 0.00 0.00
20260830153442 28 266 12.9 19.3 0.00 0.00 0.00
20260830153040 28 261 12.9 16.1 0.00 0.00 0.00
20260830152639 28 263 6.4 11.3 0.00 0.00 0.00
20260830152238 28 270 14.5 24.1 0.00 0.00 0.00
20260830151835 28 269 11.3 16.1 0.00 0.00 0.00
20260830151434 28 247 9.7 14.5 0.00 0.00 0.00
20260830151033 28 248 9.7 16.1 0.00 0.00 0.00
20260830150632 28 257 12.9 16.1 0.00 0.00 0.00
20260830150231 28 235 9.7 16.1 0.00 0.00 0.00
20260830145828 28 254 12.9 20.9 0.00 0.00 0.00
20260830145420 28 223 8.0 14.5 0.00 0.00 0.00
20260830145018 28 251 9.7 14.5 0.00 0.00 0.00
20260830144617 28 244 12.9 19.3 0.00 0.00 0.00
20260830144215 28 269 8.0 14.5 0.00 0.00 0.00
20260830143813 28 252 11.3 17.7 0.00 0.00 0.00
20260830143412 28 245 11.3 19.3 0.00 0.00 0.00
20260830143010 28 262 8.0 19.3 0.00 0.00 0.00
20260830142608 28 254 11.3 17.7 0.00 0.00 0.00
20260830142207 28 248 14.5 22.5 0.00 0.00 0.00
20260830141805 28 246 12.9 19.3 0.00 0.00 0.00
20260830141357 28 244 12.9 19.3 0.00 0.00 0.00
20260830140954 28 244 12.9 20.9 0.00 0.00 0.00
20260830140553 28 252 12.9 19.3 0.00 0.00 0.00
20260830140152 29 242 8.0 14.5 0.00 0.00 0.00
20260830135750 28 253 8.0 14.5 0.00 0.00 0.00
20260830135349 28 249 8.0 14.5 0.00 0.00 0.00
20260830134946 28 256 8.0 12.9 0.00 0.00 0.00
20260830134144 28 266 14.5 24.1 0.00 0.00 0.00
20260830133742 28 236 14.5 19.3 0.00 0.00 0.00
20260830133333 28 272 12.9 17.7 0.00 0.00 0.00
20260830132931 28 263 11.3 16.1 0.00 0.00 0.00
20260830132530 28 257 9.7 14.5 0.00 0.00 0.00
20260830132129 28 264 11.3 19.3 0.00 0.00 0.00
20260830131726 28 246 11.3 19.3 0.00 0.00 0.00
20260830131325 28 252 4.8 8.0 0.00 0.00 0.00
20260830130923 28 252 12.9 14.5 0.00 0.00 0.00
20260830130521 28 231 9.7 19.3 0.00 0.00 0.00
20260830130119 28 257 9.7 14.5 0.00 0.00 0.00
20260830125717 28 271 6.4 12.9 0.00 0.00 0.00
20260830125309 28 226 14.5 20.9 0.00 0.00 0.00
20260830124907 28 252 12.9 17.7 0.00 0.00 0.00